Regional Weather Roundup
Issued by NWS

Home | Current Version | Previous Version | Text Only | Print | Product List | Glossary Off
Versions: 1 2 3 4 5 6 7 8 9 10 11 12 13 14 15 16 17 18 19 20 21 22 23 24 25 26 27 28 29 30 31 32 33 34 35 36 37 38 39 40 41 42 43 44 45 46 47 48 49 50

776
ASUS43 KFSD 250510
RWRSD

WEATHER ROUNDUP FOR SOUTH DAKOTA
NATIONAL WEATHER SERVICE SIOUX FALLS SD
1200 AM CDT THU AUG 25 2016

NOTE: "FAIR" INDICATES FEW OR NO CLOUDS BELOW 12,000 FEET WITH NO
SIGNIFICANT WEATHER AND/OR OBSTRUCTIONS TO VISIBILITY.


SDZ001>005-009-010-012>017-250600-
NORTHWEST AND NORTH CENTRAL SOUTH DAKOTA

CITY           SKY/WX    TMP DP  RH WIND       PRES   REMARKS
BUFFALO          N/A     50  43  77 W8        30.17S
FAITH            N/A     57  44  62 NW10      30.18S
$$

SDZ012>016-024>037-041>051-057-063-072>074-250600-
SOUTHWEST AND SOUTH CENTRAL SOUTH DAKOTA

CITY           SKY/WX    TMP DP  RH WIND       PRES   REMARKS
RAPID CTY ARPT CLOUDY    60  44  55 N16       30.22S
PIERRE         CLEAR     62  49  62 NW10      30.10R
CUSTER         CLOUDY    56  41  57 CALM      30.30S
ELLSWORTH AFB  MOCLDY    61  46  56 N15       30.22R
PHILIP         MOCLDY    66  46  48 N15       30.15R
PINE RIDGE     LGT RAIN  58  54  86 E8        30.20F
WINNER         FAIR      64  52  64 SW8       30.12S
$$

SDZ004>011-016>023-039-040-250600-
NORTHEAST SOUTH DAKOTA

CITY           SKY/WX    TMP DP  RH WIND       PRES   REMARKS
ABERDEEN       PTCLDY    60  50  69 W8        30.05R
WATERTOWN      CLEAR     61  55  81 SW9       30.04S
BROOKINGS      CLEAR     60  55  83 W5        30.06F
SISSETON         N/A     56  53  90 CALM      30.00S
$$

SDZ017-020-022-023-036>040-048>070-250600-
SOUTHEAST SOUTH DAKOTA

CITY           SKY/WX    TMP DP  RH WIND       PRES   REMARKS
SIOUX FALLS    PTCLDY    62  58  86 CALM      30.07F
HURON          CLEAR     62  54  74 SW10      30.05F
CHAMBERLAIN    PTCLDY    63  55  75 W9        30.10S
MITCHELL       CLEAR     64  54  69 SW9       30.08S
YANKTON        PTCLDY    63  52  67 SW6       30.08R
$$

ABBREVIATIONS USED IN REMARKS
   TC - TEMPERATURE IN CELSIUS
  WCI - WIND CHILL INDEX
   HX - HEAT INDEX
  VSB - VISIBILITY





USA.gov is the U.S. government's official web portal to all federal, state and local government web resources and services.